Flag for Germany Weather past 2 weeks in Neumünster, Schleswig-Holstein, Germany

Now
61 °F

Overcast.


Feels Like: 61 °F
Forecast: 52 / 64 °F
Wind: 3 mph from Southwest

Location: Itzehoe

Current Time: Aug 30, 2014 at 10:24:42 AM

Latest Report: Aug 30, 2014 at 10:00 AM


Visibility: 10 mi

Pressure: 29.92 "Hg

Humidity: 86%

Dew point: 56 °F

Location of NeumünsterLocation

Historic Weather in Neumünster — Graph

°F

Neumünster temperature yesterday

Maximum temperature yesterday: 68 °F (at 3:00 PM)
Minimum temperature yesterday: 59 °F (at 10:00 PM)
Average temperature yesterday: 63 °F

Past Weeks' High & Low Weather Summary

 TemperatureHumidityPressure
High73 °F (Aug 28, 4:00 PM)100% (Aug 28, 4:00 AM)30.05 "Hg (Aug 28, 4:00 AM)
Low39 °F (Aug 26, 7:00 AM)37% (Aug 28, 4:00 PM)29.44 "Hg (Aug 18, 9:00 AM)
Average56 °F82%29.85 "Hg
* Reported Aug 15 10:00 AM — Aug 30 9:00 AM, Neumünster, Weather by CustomWeather, © 2014

Note: Actual official high and low records may vary slightly from our data, if they occured in-between our weather recording intervals... More about our weather records

Advertising

Neumünster weather history for previous 24 hours

 ConditionsComfort  
Time TempWeatherWind HumidityBarometerVisibility
9:00 AM
Aug 30
61 °FOvercast.3 mph87%29.92 "Hg8 mi
7:00 AM57 °FOvercast.1 mph92%29.92 "Hg5 mi
6:00 AM56 °FOvercast.1 mph94%29.93 "Hg4 mi
4:00 AM57 °FOvercast.1 mph94%29.94 "Hg4 mi
3:00 AM57 °FPassing clouds.1 mph94%29.95 "Hg3 mi
1:00 AM57 °FPassing clouds.1 mph97%29.96 "Hg2 mi
12:00 AM58 °FPassing clouds.1 mph96%29.95 "Hg2 mi
10:00 PM
Aug 29
59 °FOvercast.1 mph96%29.95 "Hg1 mi
9:00 PM61 °FOvercast.1 mph91%29.94 "Hg7 mi
7:00 PM65 °FOvercast.2 mph71%29.93 "Hg19 mi
6:00 PM67 °FSunny.3 mph63%29.93 "Hg16 mi
4:00 PM67 °FScattered clouds.3 mph65%29.92 "Hg12 mi
3:00 PM68 °FOvercast.3 mph67%29.92 "Hg15 mi
1:00 PM66 °FOvercast.5 mph77%29.91 "Hg9 mi
12:00 PM65 °FOvercast.2 mph87%29.90 "Hg4 mi
10:00 AM63 °FLow clouds.2 mph92%29.90 "Hg4 mi
Weather by CustomWeather, © 2014

See weather overviewHow to use our weather pages